This is the latest recevied weather packets stored in our database for station/object N3LF. If no packets are shown the sender has not sent any weather packets the latest 10 day(s).
| Time | Temp. | Humidity | Pressure | Rain* | Wind** | Luminosity | Snow |
|---|---|---|---|---|---|---|---|
| 1787845013 | 26.67° C | 84% | 1018.8 hPa | 0 mm | - | 472 W/m² | - |
| 1787844708 | 26.11° C | 87% | 1018.9 hPa | 0 mm | - | 548 W/m² | - |
| 1787844407 | 26.11° C | 86% | 1018.7 hPa | 0 mm | - | 523 W/m² | - |
| 1787844102 | 26.11° C | 89% | 1018.6 hPa | 0 mm | - | 527 W/m² | - |
| 1787843797 | 26.11° C | 88% | 1018.7 hPa | 0 mm | - | 512 W/m² | - |
| 1787843492 | 25° C | 92% | 1018.5 hPa | 0 mm | - | 501 W/m² | - |
| 1787843189 | 24.44° C | 93% | 1018.4 hPa | 0 mm | - | 490 W/m² | - |
| 1787842889 | 23.89° C | 93% | 1018.6 hPa | 0 mm | - | 492 W/m² | - |
| 1787842584 | 23.89° C | 93% | 1018.4 hPa | 0 mm | - | 227 W/m² | - |
| 1787842283 | 24.44° C | 92% | 1018.4 hPa | 0 mm | - | 213 W/m² | - |
| 1787841983 | 24.44° C | 94% | 1018.3 hPa | 0 mm | - | 507 W/m² | - |
| 1787841679 | 22.78° C | 99% | 1018.5 hPa | 0 mm | - | 541 W/m² | - |
| 1787841378 | 22.78° C | 99% | 1018.3 hPa | 0 mm | - | 503 W/m² | - |
| 1787841073 | 22.22° C | 99% | 1018.2 hPa | 0 mm | - | 274 W/m² | - |
| 1787840768 | 22.22° C | 99% | 1018.2 hPa | 0 mm | - | 504 W/m² | - |
| 1787840463 | 22.22° C | 99% | 1018.2 hPa | 0 mm | - | 194 W/m² | - |
| 1787840159 | 21.67° C | 99% | 1018.2 hPa | 0 mm | - | 387 W/m² | - |
| 1787839859 | 21.67° C | 99% | 1018.2 hPa | 0 mm | - | 199 W/m² | - |
| 1787839554 | 21.67° C | 99% | 1018.2 hPa | 0 mm | - | 199 W/m² | - |
| 1787839253 | 22.22° C | 99% | 1018.3 hPa | 0 mm | - | 424 W/m² | - |
| 1787838948 | 21.67° C | 99% | 1018.3 hPa | 0 mm | - | 347 W/m² | - |
| 1787838647 | 21.11° C | 99% | 1018.3 hPa | 0 mm | - | 316 W/m² | - |
| 1787838346 | 21.67° C | 99% | 1018.2 hPa | 0 mm | - | 189 W/m² | - |
| 1787838046 | 21.67° C | 99% | 1018.3 hPa | 0 mm | - | 278 W/m² | - |
| 1787837745 | 21.11° C | 99% | 1018.2 hPa | 0 mm | - | 278 W/m² | - |
* Rain latest hour (hover to see other rain measurements)
** Current wind speed in m/s (hover to see current wind gust speed)